TimeEDT,TemperatureF,Dew PointF,Humidity,Sea Level PressureIn,VisibilityMPH,Wind Direction,Wind SpeedMPH,Gust SpeedMPH,PrecipitationIn,Events,Conditions,WindDirDegrees,DateUTC
12:12 AM,51.8,51.8,100,29.95,3.0,North,4.6,-,0.01,,Overcast,10,2012-09-30 04:12:00
12:50 AM,51.8,51.8,100,29.95,2.0,NNE,4.6,-,0.03,Rain,Light Rain,20,2012-09-30 04:50:00
12:53 AM,52.0,51.1,97,29.96,2.0,North,4.6,-,0.03,Rain,Light Rain,10,2012-09-30 04:53:00
1:04 AM,51.8,51.8,100,29.95,3.0,NNE,5.8,-,0.00,Rain,Light Rain,20,2012-09-30 05:04:00
1:25 AM,51.8,51.8,100,29.95,4.0,North,5.8,-,0.01,,Overcast,10,2012-09-30 05:25:00
1:53 AM,52.0,51.1,97,29.96,4.0,North,8.1,-,0.01,,Overcast,10,2012-09-30 05:53:00
2:41 AM,51.8,51.8,100,29.95,2.5,North,5.8,-,N/A,,Overcast,360,2012-09-30 06:41:00
2:53 AM,52.0,51.1,97,29.96,2.0,NNE,4.6,-,N/A,,Overcast,20,2012-09-30 06:53:00
3:27 AM,51.8,51.8,100,29.95,1.8,North,4.6,-,N/A,,Overcast,10,2012-09-30 07:27:00
3:35 AM,51.8,51.8,100,29.95,2.0,North,5.8,-,N/A,,Overcast,10,2012-09-30 07:35:00
3:53 AM,52.0,51.1,97,29.96,2.0,North,5.8,-,0.01,,Overcast,10,2012-09-30 07:53:00
4:53 AM,52.0,51.1,97,29.96,2.5,NNE,3.5,-,N/A,,Overcast,20,2012-09-30 08:53:00
5:04 AM,51.8,51.8,100,29.95,3.0,NNE,4.6,-,N/A,,Overcast,20,2012-09-30 09:04:00
5:44 AM,51.8,51.8,100,29.94,1.8,NNE,4.6,-,N/A,,Overcast,20,2012-09-30 09:44:00
5:53 AM,52.0,51.1,97,29.95,1.2,NNE,5.8,-,N/A,,Overcast,20,2012-09-30 09:53:00
6:06 AM,51.8,51.8,100,29.94,1.8,NNE,4.6,-,N/A,,Overcast,20,2012-09-30 10:06:00
6:28 AM,53.6,51.8,94,29.95,2.0,North,4.6,-,N/A,,Overcast,360,2012-09-30 10:28:00
6:51 AM,53.6,51.8,94,29.95,1.2,North,3.5,-,0.00,Rain,Light Rain,10,2012-09-30 10:51:00
6:53 AM,53.1,52.0,96,29.96,1.2,North,4.6,-,0.01,Rain,Light Rain,10,2012-09-30 10:53:00
7:04 AM,53.6,51.8,94,29.94,0.5,NNE,3.5,-,0.00,Fog-Rain,Light Rain,30,2012-09-30 11:04:00
7:31 AM,53.6,51.8,94,29.93,0.8,NNE,5.8,-,0.00,,Mist,30,2012-09-30 11:31:00
7:46 AM,53.6,51.8,94,29.93,1.0,North,4.6,-,0.00,,Overcast,10,2012-09-30 11:46:00
7:53 AM,53.1,52.0,96,29.95,1.5,North,5.8,-,0.00,,Overcast,360,2012-09-30 11:53:00
8:02 AM,53.6,51.8,94,29.94,2.0,North,5.8,-,N/A,,Overcast,10,2012-09-30 12:02:00
8:33 AM,53.6,51.8,94,29.94,4.0,North,5.8,-,0.01,Rain,Light Rain,360,2012-09-30 12:33:00
8:46 AM,53.6,53.6,100,29.94,2.0,North,4.6,-,0.01,Rain,Light Rain,360,2012-09-30 12:46:00
8:53 AM,54.0,53.1,97,29.95,2.5,North,4.6,-,0.02,Rain,Light Rain,360,2012-09-30 12:53:00
9:26 AM,53.6,53.6,100,29.93,4.0,North,6.9,-,0.02,Rain,Light Rain,10,2012-09-30 13:26:00
9:49 AM,55.4,53.6,94,29.93,2.5,North,5.8,-,0.04,Rain,Rain,10,2012-09-30 13:49:00
9:53 AM,55.4,53.6,94,29.93,2.5,North,6.9,-,N/A,Rain,Light Rain,10,2012-09-30 13:53:00
10:03 AM,55.4,53.6,94,29.93,4.0,North,6.9,-,0.00,Rain,Light Rain,360,2012-09-30 14:03:00
10:13 AM,55.4,53.6,94,29.92,1.8,North,6.9,-,0.00,Rain,Light Rain,10,2012-09-30 14:13:00
10:28 AM,55.4,55.4,100,29.92,3.0,North,5.8,-,0.00,,Overcast,10,2012-09-30 14:28:00
10:49 AM,57.2,55.4,94,29.90,7.0,North,5.8,-,0.01,Rain,Light Rain,10,2012-09-30 14:49:00
10:53 AM,57.0,55.9,96,29.91,7.0,NNE,5.8,-,0.01,Rain,Light Rain,20,2012-09-30 14:53:00
11:53 AM,59.0,57.0,93,29.88,5.0,NNE,6.9,-,0.01,Rain,Light Rain,30,2012-09-30 15:53:00
12:10 PM,59.0,57.2,94,29.86,2.0,NNE,6.9,-,0.00,Rain,Light Rain,30,2012-09-30 16:10:00
12:31 PM,59.0,57.2,94,29.84,4.0,NNE,8.1,-,0.03,Rain,Light Rain,20,2012-09-30 16:31:00
12:51 PM,60.8,57.2,88,29.84,1.8,NE,6.9,-,0.13,Rain,Rain,50,2012-09-30 16:51:00
12:53 PM,60.1,57.9,93,29.84,1.2,NE,8.1,-,0.17,Rain,Heavy Rain,40,2012-09-30 16:53:00
1:01 PM,60.8,57.2,88,29.82,0.8,NE,9.2,-,0.13,Rain,Heavy Rain,40,2012-09-30 17:01:00
1:05 PM,60.8,57.2,88,29.82,1.5,NE,8.1,-,0.14,Rain,Heavy Rain,40,2012-09-30 17:05:00
1:07 PM,60.8,57.2,88,29.82,2.5,NE,6.9,-,0.14,Rain,Rain,50,2012-09-30 17:07:00
1:14 PM,60.8,57.2,88,29.82,7.0,NE,8.1,-,0.14,Rain,Light Rain,40,2012-09-30 17:14:00
1:29 PM,60.8,59.0,94,29.80,6.0,NE,9.2,-,0.16,Rain,Rain,50,2012-09-30 17:29:00
1:53 PM,61.0,59.0,93,29.80,8.0,NE,8.1,-,0.17,Rain,Light Rain,50,2012-09-30 17:53:00
2:53 PM,62.1,60.1,93,29.77,5.0,ENE,8.1,-,0.03,Rain,Light Rain,70,2012-09-30 18:53:00
3:53 PM,62.1,60.1,93,29.72,6.0,ENE,10.4,-,0.09,Rain,Rain,70,2012-09-30 19:53:00
4:39 PM,62.6,60.8,94,29.68,5.0,NE,12.7,-,0.07,Rain,Rain,50,2012-09-30 20:39:00
4:53 PM,62.1,60.1,93,29.67,5.0,NE,10.4,23.0,0.10,Rain,Rain,50,2012-09-30 20:53:00
5:16 PM,62.6,60.8,94,29.65,6.0,NE,10.4,-,0.04,Rain,Rain,50,2012-09-30 21:16:00
5:53 PM,62.1,60.1,93,29.62,2.0,NE,8.1,-,0.15,Rain,Heavy Rain,40,2012-09-30 21:53:00
5:59 PM,62.6,60.8,94,29.60,2.5,NNE,13.8,19.6,0.03,Rain,Heavy Rain,20,2012-09-30 21:59:00
6:08 PM,62.6,60.8,94,29.59,4.0,NNE,12.7,24.2,0.05,Rain,Rain,30,2012-09-30 22:08:00
6:36 PM,62.6,60.8,94,29.57,4.0,NE,11.5,19.6,0.17,Rain,Rain,40,2012-09-30 22:36:00
6:41 PM,62.6,60.8,94,29.56,2.5,NE,15.0,27.6,0.21,Rain,Heavy Rain,50,2012-09-30 22:41:00
6:53 PM,63.0,61.0,93,29.55,3.0,NNE,9.2,-,0.26,Rain,Rain,30,2012-09-30 22:53:00
6:59 PM,62.6,60.8,94,29.54,2.5,NE,9.2,17.3,0.02,Rain,Heavy Rain,50,2012-09-30 22:59:00
7:04 PM,62.6,60.8,94,29.55,3.0,ENE,11.5,17.3,0.05,Rain,Heavy Rain,60,2012-09-30 23:04:00
7:12 PM,62.6,60.8,94,29.53,2.5,NE,13.8,19.6,0.08,Rain,Rain,40,2012-09-30 23:12:00
7:32 PM,62.6,60.8,94,29.53,1.8,ENE,11.5,-,0.18,Rain,Heavy Rain,60,2012-09-30 23:32:00
7:42 PM,62.6,60.8,94,29.54,1.0,ESE,9.2,19.6,0.42,Rain,Heavy Rain,110,2012-09-30 23:42:00
7:50 PM,62.6,60.8,94,29.54,0.5,East,8.1,-,0.82,Fog-Rain,Heavy Rain,100,2012-09-30 23:50:00
7:53 PM,63.0,61.0,93,29.55,0.8,ESE,5.8,-,0.83,Rain,Heavy Rain,110,2012-09-30 23:53:00
7:57 PM,62.6,60.8,94,29.54,1.5,ESE,8.1,-,0.02,Rain,Heavy Rain,110,2012-09-30 23:57:00
8:00 PM,64.4,62.6,94,29.54,2.0,ESE,8.1,-,0.02,Rain,Rain,120,2012-10-01 00:00:00
8:10 PM,64.4,62.6,94,29.54,3.0,SE,6.9,-,0.03,Rain,Light Rain,140,2012-10-01 00:10:00
8:20 PM,64.4,62.6,94,29.54,4.0,SSE,9.2,-,0.03,Rain,Light Rain,150,2012-10-01 00:20:00
8:32 PM,64.4,62.6,94,29.54,9.0,South,6.9,16.1,0.03,,Overcast,170,2012-10-01 00:32:00
8:53 PM,64.0,61.0,90,29.55,7.0,SSE,10.4,18.4,0.04,,Overcast,160,2012-10-01 00:53:00
9:00 PM,64.4,60.8,88,29.55,10.0,South,8.1,17.3,N/A,,Overcast,170,2012-10-01 01:00:00
9:26 PM,62.6,60.8,94,29.56,5.0,South,5.8,-,N/A,Rain,Light Rain,170,2012-10-01 01:26:00
9:37 PM,62.6,60.8,94,29.56,2.0,SSE,6.9,-,0.00,Rain,Light Rain,150,2012-10-01 01:37:00
9:48 PM,62.6,60.8,94,29.56,3.0,Variable,6.9,-,0.01,Rain,Light Rain,0,2012-10-01 01:48:00
9:53 PM,63.0,61.0,93,29.56,4.0,South,8.1,-,0.01,Rain,Light Rain,170,2012-10-01 01:53:00
9:58 PM,62.6,60.8,94,29.56,10.0,South,6.9,-,0.00,,Overcast,170,2012-10-01 01:58:00
10:08 PM,62.6,60.8,94,29.55,10.0,South,5.8,-,0.00,,Overcast,180,2012-10-01 02:08:00
10:51 PM,60.8,57.2,88,29.57,10.0,South,6.9,-,0.00,,Mostly Cloudy,190,2012-10-01 02:51:00
10:53 PM,60.1,57.9,93,29.58,10.0,South,10.4,19.6,0.00,,Mostly Cloudy,190,2012-10-01 02:53:00
11:45 PM,59.0,55.4,88,29.59,10.0,SSW,8.1,-,N/A,,Overcast,200,2012-10-01 03:45:00
11:53 PM,59.0,55.9,90,29.59,10.0,South,8.1,-,N/A,,Overcast,190,2012-10-01 03:53:00